User: anonymous   Login
Location: Columbus
(29.5618°N, 96.6770°W)
Time: 18:25:38
(UTC-05:00)
Language:

Cosmos 2056 Rocket - Orbit

View from above orbital plane
View from above orbital plane
View from above satellite
View from above satellite

Ground track
Ground track

The orbit data is extracted from the following two-line orbital elements,

1 20433U 90004B   16145.18285373  .00000033  00000-0  20144-4 0  9990
2 20433  74.0363 350.2598 0041563 215.3271 284.2139 14.35932837379361
Epoch (UTC): 24 May 2016 04:23:18
Eccentricity: 0.0041563
inclination: 74.0363°
perigee height: 742 km
apogee height: 801 km
right ascension of ascending node: 350.2598°
argument of perigee: 215.3271°
revolutions per day: 14.35932837
mean anomaly at epoch: 284.2139°
orbit number at epoch: 37936

The dashed part of the orbit path shows where the satellite is in the earth's shadow,  

DLR